DMSP 5D-2 F13 DEB, 40469

Orbit data source: Space-Track

DMSP 5D-2 F13 DEB, 40469 is space debris in SSO originally from a launch on Fri, 24 Mar 1995 UTC launched from the Air Force Western Test Range (AFWTR). Debris objects in space refer to the collection of defunct objects orbiting the Earth. Examples of debris include non-operational satellites, rocket bodies, and fragments generated from explosions, collisions, or faulty payload assembly.

Loading next visibility...
Identifier
40469, 1995-015BM
Orbit
SSO
Country
Flag of USUS
Related business
Manufacturer
Unknown
Mission
Spacecraft
Bus & Motor
Unknown
Mass
Unknown
Launch date (UTC)
1995-03-24 (31 years ago)
Launch vehicle
Unknown
Launch site
Air Force Western Test Range (AFWTR)
Object type
Payload
Rocket body
Debris
Shape & HBR
Unknown shape, 0.1 m
Radar Cross Section
Small (<0.1 m²)

Expand to show TLE details & history
Last TLE update: 2 days ago

TLE from 2 days ago
0 DMSP 5D-2 F13 DEB
1 40469U 95015BM  26171.15564673  .00007430  00000-0  15459-2 0  9997
2 40469  98.5625 238.9869 0021801  89.9968 270.3729 14.60194851589737
Epoch: 2026-06-20T03:44Z
TLE epoch observation values (Epoch: 2026-06-20T03:44:07.877Z)
Latitude
-0.00005°
Longitude
-85.42024°
Altitude
695.452 km
Speed
7.508 km/s
True Right ascension
15h 55m 56s
True Declination
0° 00' 00"
Sunlit
Object was in full shadow at epoch
Visualization orbit readout
Latitude
Unknown
Longitude
Unknown
Altitude
Unknown
Speed
Unknown
Apparent Right ascension
Unknown
Apparent Declination
Unknown
Sunlit
N/A
Visualization observer readout
Local Sidereal Time
13:25:24
Azimuth
Unknown
Elevation
Unknown
Doppler factor
Unknown
Orbital elements
Apogee altitude
705.051 km
Perigee altitude
674.234 km
Semi-major axis
7,067.78 km
Eccentricity
0.00218
Inclination
98.5625°
RAAN
238.9869°
Arg. of periapsis
89.9968°
True anomaly
270.12308°
Mean anomaly
270.3729°
Eccentric anomaly
270.24799°
Mean motion
3.65274 °/min
Orbital period
98.56 mins
BSTAR
0.0015459
Loading maneuver chart data...
Computing Atmospheric mass density...

Documentation

Showing up to 5 results
|